Location: Krakow
(50.0830°N, 19.9170°E)
Time: 04:55:44
(UTC+02:00)

Tiros 1 - Pass Details

Date: 17 February 2023
Orbit: 627 x 662 km, 48.4° (Epoch: 25 March)

Event Time Altitude Azimuth Distance (km) Brightness Sun altitude
Rises 18:20:25 0° 212° (SSW) 2,912 11.0 -13.3°
Reaches altitude 10° 18:23:05 10° 198° (SSW) 2,003 9.9 -13.7°
Maximum altitude 18:26:45 24° 146° (SE) 1,318 8.4 -14.3°
Enters shadow 18:28:15 20° 117° (ESE) 1,457 8.4 -14.5°
Drops below altitude 10° 18:30:24 10° 93° (E) 2,003 - -14.9°
Sets 18:33:04 0° 79° (E) 2,912 - -15.3°
